When you browse on this site, cookies collect data to enhance your experience and personalize the content and advertising you see.
Visit our Privacy Policy to learn more. By continuing to use the site, you agree to this use of cookies and data.

Meteo pe oră la Dzialyn

Astăzi, 19 Septembrie, Sâmbătă

Timp Temperatura Precipitaţii Vânt Presiune Umiditate
00:00 +9°C° 0 mm 1 m/s 759 mmHg 69%
01:00 +9°C° 0 mm 1 m/s 759 mmHg 68%
02:00 +9°C° 0 mm 1 m/s 759 mmHg 69%
03:00 +8°C° 0 mm 1 m/s 758 mmHg 70%
04:00 +8°C° 0 mm 1 m/s 758 mmHg 71%
05:00 +8°C° 0 mm 2 m/s 758 mmHg 69%
06:00 +9°C° 0 mm 2 m/s 758 mmHg 67%
07:00 +9°C° 0 mm 2 m/s 759 mmHg 64%
08:00 +12°C° 0 mm 2 m/s 759 mmHg 58%
09:00 +14°C° 0 mm 2 m/s 758 mmHg 51%
10:00 +16°C° 0 mm 3 m/s 758 mmHg 45%
11:00 +17°C° 0 mm 2 m/s 758 mmHg 42%
12:00 +18°C° 0 mm 2 m/s 758 mmHg 39%
13:00 +19°C° 0 mm 2 m/s 757 mmHg 36%
14:00 +19°C° 0 mm 2 m/s 757 mmHg 40%
15:00 +18°C° 0 mm 2 m/s 757 mmHg 43%
16:00 +18°C° 0 mm 2 m/s 757 mmHg 47%
17:00 +16°C° 0 mm 1 m/s 757 mmHg 50%
18:00 +15°C° 0 mm 1 m/s 756 mmHg 53%
19:00 +13°C° 0 mm 1 m/s 756 mmHg 56%
20:00 +12°C° 0 mm 1 m/s 756 mmHg 63%
21:00 +12°C° 0 mm 1 m/s 757 mmHg 70%
22:00 +11°C° 0 mm 1 m/s 757 mmHg 77%
23:00 +11°C° 0 mm 1 m/s 757 mmHg 80%

Mâine, 20 Septembrie, Duminică

Timp Temperatura Precipitaţii Vânt Presiune Umiditate
00:00 +11°C° 0 mm 1 m/s 757 mmHg 82%
01:00 +11°C° 0 mm 1 m/s 757 mmHg 85%
02:00 +11°C° 0 mm 1 m/s 757 mmHg 86%
03:00 +10°C° 0 mm 1 m/s 757 mmHg 88%
04:00 +10°C° 0 mm 1 m/s 757 mmHg 89%
05:00 +11°C° 0 mm 1 m/s 757 mmHg 88%
06:00 +12°C° 0 mm 1 m/s 757 mmHg 87%
07:00 +12°C° 0 mm 1 m/s 757 mmHg 85%
08:00 +14°C° 0 mm 2 m/s 757 mmHg 79%
09:00 +16°C° 0 mm 2 m/s 757 mmHg 72%
10:00 +18°C° 0 mm 2 m/s 757 mmHg 65%
11:00 +19°C° 0 mm 2 m/s 757 mmHg 61%
12:00 +20°C° 0 mm 2 m/s 756 mmHg 57%
13:00 +20°C° 0 mm 2 m/s 756 mmHg 53%
14:00 +20°C° 0 mm 2 m/s 756 mmHg 54%
15:00 +20°C° 0 mm 2 m/s 755 mmHg 55%
16:00 +20°C° 0 mm 2 m/s 755 mmHg 57%
17:00 +18°C° 0 mm 2 m/s 755 mmHg 62%
18:00 +16°C° 0 mm 2 m/s 755 mmHg 67%
19:00 +14°C° 0 mm 2 m/s 755 mmHg 71%
20:00 +13°C° 0 mm 2 m/s 755 mmHg 71%
21:00 +13°C° 0 mm 2 m/s 755 mmHg 71%
22:00 +12°C° 0 mm 2 m/s 755 mmHg 70%
23:00 +12°C° 0 mm 2 m/s 755 mmHg 73%

Poimâine, 21 Septembrie, Luni

Timp Temperatura Precipitaţii Vânt Presiune Umiditate
00:00 +10°C° 0 mm 2 m/s 755 mmHg 76%
01:00 +10°C° 0 mm 2 m/s 755 mmHg 78%
02:00 +9°C° 0 mm 2 m/s 755 mmHg 81%
03:00 +9°C° 0 mm 2 m/s 755 mmHg 84%
04:00 +9°C° 0 mm 2 m/s 754 mmHg 87%
05:00 +9°C° 0 mm 2 m/s 754 mmHg 85%
06:00 +10°C° 0 mm 2 m/s 754 mmHg 82%
07:00 +12°C° 0 mm 2 m/s 754 mmHg 80%
08:00 +14°C° 0 mm 2 m/s 754 mmHg 71%
09:00 +17°C° 0 mm 2 m/s 754 mmHg 63%
10:00 +19°C° 0 mm 3 m/s 754 mmHg 55%
11:00 +20°C° 0 mm 3 m/s 754 mmHg 52%
12:00 +21°C° 0 mm 3 m/s 754 mmHg 48%
13:00 +22°C° 0 mm 3 m/s 753 mmHg 45%
14:00 +23°C° 0 mm 2 m/s 753 mmHg 47%
15:00 +23°C° 0 mm 2 m/s 753 mmHg 50%
16:00 +23°C° 0 mm 1 m/s 753 mmHg 53%
17:00 +21°C° 0 mm 1 m/s 752 mmHg 57%
18:00 +19°C° 0 mm 1 m/s 752 mmHg 61%
19:00 +16°C° 0 mm 1 m/s 752 mmHg 66%
20:00 +15°C° 0 mm 1 m/s 752 mmHg 67%
21:00 +15°C° 0 mm 1 m/s 752 mmHg 69%
22:00 +14°C° 0 mm 1 m/s 752 mmHg 70%
23:00 +14°C° 0 mm 1 m/s 752 mmHg 71%

22 Septembrie, Marţi

Timp Temperatura Precipitaţii Vânt Presiune Umiditate
00:00 +14°C° 0 mm 2 m/s 752 mmHg 71%
01:00 +14°C° 0 mm 2 m/s 752 mmHg 72%
02:00 +13°C° 0 mm 2 m/s 751 mmHg 72%
03:00 +13°C° 0 mm 2 m/s 751 mmHg 73%
04:00 +13°C° 0 mm 2 m/s 751 mmHg 74%
05:00 +14°C° 0 mm 2 m/s 751 mmHg 72%
06:00 +15°C° 0 mm 2 m/s 751 mmHg 71%
07:00 +16°C° 0 mm 2 m/s 751 mmHg 69%
08:00 +18°C° 0 mm 3 m/s 751 mmHg 63%
09:00 +20°C° 0 mm 3 m/s 751 mmHg 58%
10:00 +22°C° 0 mm 4 m/s 751 mmHg 52%
11:00 +25°C° 0 mm 4 m/s 751 mmHg 48%
12:00 +26°C° 0 mm 4 m/s 750 mmHg 44%
13:00 +27°C° 0 mm 5 m/s 750 mmHg 40%
14:00 +27°C° 0 mm 4 m/s 749 mmHg 43%
15:00 +26°C° 0 mm 4 m/s 749 mmHg 46%
16:00 +26°C° 0 mm 3 m/s 748 mmHg 50%
17:00 +24°C° 0 mm 3 m/s 748 mmHg 53%
18:00 +21°C° 0 mm 3 m/s 748 mmHg 57%
19:00 +19°C° 0 mm 3 m/s 748 mmHg 61%
20:00 +19°C° 0 mm 3 m/s 748 mmHg 62%
21:00 +18°C° 0 mm 3 m/s 748 mmHg 62%
22:00 +17°C° 0 mm 4 m/s 748 mmHg 63%
23:00 +17°C° 0 mm 3 m/s 747 mmHg 65%

23 Septembrie, Miercuri

Timp Temperatura Precipitaţii Vânt Presiune Umiditate
00:00 +17°C° 0 mm 3 m/s 747 mmHg 67%
01:00 +16°C° 0 mm 3 m/s 747 mmHg 69%
02:00 +16°C° 0 mm 3 m/s 746 mmHg 70%
03:00 +14°C° 0 mm 3 m/s 746 mmHg 71%
04:00 +14°C° 0 mm 3 m/s 746 mmHg 72%
05:00 +16°C° 0 mm 3 m/s 746 mmHg 71%
06:00 +16°C° 0 mm 3 m/s 746 mmHg 69%
07:00 +17°C° 0 mm 3 m/s 746 mmHg 67%
08:00 +19°C° 0 mm 3 m/s 745 mmHg 61%
09:00 +21°C° 0 mm 3 m/s 745 mmHg 56%
10:00 +24°C° 0 mm 3 m/s 745 mmHg 50%
11:00 +25°C° 0 mm 4 m/s 745 mmHg 47%
12:00 +27°C° 0 mm 4 m/s 744 mmHg 44%
13:00 +28°C° 0 mm 5 m/s 744 mmHg 40%
14:00 +28°C° 0 mm 4 m/s 744 mmHg 43%
15:00 +27°C° 0 mm 3 m/s 743 mmHg 47%
16:00 +27°C° 0 mm 3 m/s 743 mmHg 50%
17:00 +25°C° 0 mm 3 m/s 743 mmHg 54%
18:00 +22°C° 0 mm 3 m/s 743 mmHg 57%
19:00 +20°C° 0 mm 3 m/s 743 mmHg 61%
20:00 +19°C° 0 mm 3 m/s 743 mmHg 64%
21:00 +19°C° 0 mm 2 m/s 743 mmHg 67%
22:00 +18°C° 0 mm 2 m/s 743 mmHg 70%
23:00 +18°C° 0 mm 2 m/s 743 mmHg 71%

24 Septembrie, Joi

Timp Temperatura Precipitaţii Vânt Presiune Umiditate
00:00 +17°C° 0 mm 2 m/s 743 mmHg 72%
01:00 +17°C° 0 mm 2 m/s 743 mmHg 73%
02:00 +17°C° 0 mm 2 m/s 743 mmHg 75%
03:00 +17°C° 0 mm 2 m/s 743 mmHg 77%
04:00 +16°C° 0 mm 2 m/s 743 mmHg 79%
05:00 +17°C° 0.3 mm 2 m/s 743 mmHg 79%
06:00 +17°C° 0.3 mm 2 m/s 743 mmHg 80%
07:00 +18°C° 0.3 mm 2 m/s 743 mmHg 80%
08:00 +19°C° 0.2 mm 2 m/s 743 mmHg 76%
09:00 +20°C° 0.2 mm 2 m/s 744 mmHg 72%
10:00 +23°C° 0.2 mm 2 m/s 744 mmHg 69%
11:00 +24°C° 0 mm 3 m/s 744 mmHg 64%
12:00 +24°C° 0 mm 3 m/s 744 mmHg 60%
13:00 +25°C° 0 mm 3 m/s 744 mmHg 56%
14:00 +25°C° 0 mm 2 m/s 744 mmHg 55%
15:00 +25°C° 0 mm 2 m/s 744 mmHg 55%
16:00 +25°C° 0 mm 2 m/s 744 mmHg 54%
17:00 +23°C° 0 mm 1 m/s 743 mmHg 59%
18:00 +21°C° 0 mm 1 m/s 743 mmHg 63%
19:00 +20°C° 0 mm 1 m/s 743 mmHg 68%
20:00 +19°C° 0 mm 1 m/s 743 mmHg 70%
21:00 +18°C° 0 mm 2 m/s 743 mmHg 73%
22:00 +17°C° 0 mm 2 m/s 743 mmHg 75%
23:00 +17°C° 0 mm 2 m/s 743 mmHg 79%
Arată mai mult